Regional Weather Roundup
Issued by NWS State College, PA

Home | Current Version | Previous Version | Text Only | Print | Product List | Glossary Off
Versions: 1 2 3 4 5 6 7 8 9 10 11 12 13 14 15 16 17 18 19 20 21 22 23 24 25 26 27 28 29 30 31 32 33 34 35 36 37 38 39 40 41 42 43 44 45 46 47 48 49 50

000
ASUS41 KCTP 160610
RWRCTP

REGIONAL WEATHER ROUNDUP
NATIONAL WEATHER SERVICE STATE COLLEGE PA
200 AM EDT WED AUG 16 2017

Note: "fair" indicates few or no clouds below 12,000 feet with no
significant weather and/or obstructions to visibility.

* = STATION THAT DOES NOT REPORT PRECIPITATION /E.G. RAIN...SNOW...ETC/
    THUNDER OR FOG.

PAZ002>004-007>009-013>016-020>023-029>032-160700-
WESTERN PENNSYLVANIA

CITY           SKY/WX    TMP DP  RH WIND       PRES   REMARKS
ERIE           PTCLDY    64  59  83 CALM      30.00R
MEADVILLE      CLEAR     63  63 100 CALM      30.03R
FRANKLIN*      CLEAR     63  57  82 NW3       30.03S
NEW CASTLE     NOT AVBL
BEAVER COUNTY  NOT AVBL
BUTLER*        CLEAR     66  63  88 CALM      30.01S
PITTSBURGH INT PTCLDY    69  67  93 NW6       30.00S
PITTSBURGH     CLEAR     72  65  78 NW3       30.00R
INDIANA*       CLOUDY    68  66  94 CALM      30.02F
LATROBE        PTCLDY    66  66 100 NW3       30.00S FOG
WASHINGTON CO* CLEAR     63  61  94 CALM      30.01R VSB 1
$$

PAZ004>006-010>012-017>019-024>028-033>037-041-042-045-046-049>053-160700-
CENTRAL PENNSYLVANIA

CITY           SKY/WX    TMP DP  RH WIND       PRES   REMARKS
BRADFORD       CLEAR     57  57 100 CALM      30.02S
DUBOIS         CLEAR     65  60  84 NW5       30.00F
CLEARFIELD     PTCLDY    65  63  93 S3        29.99S
JOHNSTOWN      CLOUDY    69  64  84 W5        30.03S
ALTOONA        PTCLDY    64  64 100 CALM      29.99S FOG
STATE COLLEGE  CLEAR     67  66  97 CALM      29.97F
WILLIAMSPORT   CLEAR     68  66  93 CALM      29.93S
SELINSGROVE    CLEAR     65  65 100 CALM      29.94F FOG
FT INDIANTOWN  FOG       64  64 100 CALM      29.95S VSB 1/4
CAPITAL CITY   PTCLDY    68  65  90 CALM      29.94S
HARRISBURG     MOCLDY    69  69 100 CALM      29.93S FOG
YORK           FOG       64  64 100 CALM      29.94F VSB 1/4
$$

PAZ038>040-043-044-047-048-054-055-060>062-067>071-160700-
EASTERN PENNSYLVANIA

CITY           SKY/WX    TMP DP  RH WIND       PRES   REMARKS
SCRANTON       PTCLDY    65  64  97 CALM      29.96S FOG
MOUNT POCONO   CLEAR     61  61 100 NW5       29.99S
ALLENTOWN      FOG       68  66  93 W3        29.93S VSB 1/4
QUAKERTOWN*    CLOUDY    64  64 100 CALM      29.95S VSB<1/4
READING        FOG       69  69 100 CALM      29.93S VSB 1/4
LANCASTER      FOG       67  67 100 CALM      29.95S VSB 1/4
COATESVILLE    FOG       66  66 100 CALM      29.97R VSB<1/4
POTTSTOWN      FOG       67  67 100 CALM      29.95F VSB 1/4
BLUE BELL      CLOUDY    66  66 100 CALM      29.95R VSB 1/4
DOYLESTOWN     FOG       69  69 100 CALM      29.93S VSB 1/2
WILLOW GROVE   NOT AVBL
NORTH PHILA    FOG       73  71  93 N3        29.93F VSB 1/4
PHILADELPHIA   MOCLDY    73  70  90 CALM      29.93S
$$




USA.gov is the U.S. government's official web portal to all federal, state and local government web resources and services.